User: anonymous   Login
Location: Pine Mountain Observatory
(43.7910°N, 120.9377°W)
Time: 03:27:59
(UTC-07:00)
Language:

Cosmos 1076 Rocket - Orbit

View from above orbital plane
View from above orbital plane
View from above satellite
View from above satellite

Ground track
Ground track

The orbit data is extracted from the following two-line orbital elements,

1 11267U 79011B   16125.86782202  .00000211  00000-0  19783-4 0  9991
2 11267  82.5254 254.9336 0017888 143.5764 216.6675 14.88751315 14718
Epoch (UTC): 04 May 2016 20:49:39
Eccentricity: 0.0017888
inclination: 82.5254°
perigee height: 589 km
apogee height: 614 km
right ascension of ascending node: 254.9336°
argument of perigee: 143.5764°
revolutions per day: 14.88751315
mean anomaly at epoch: 216.6675°
orbit number at epoch: 1471

The dashed part of the orbit path shows where the satellite is in the earth's shadow,  

DLR